Location: Toronto
(43.6672°N, 79.4170°W)
Time: 22:51:01
(UTC-05:00)

ISS - Visible Passes

Search period start: 23 January 2018 00:00
Search period end: 02 February 2018 00:00
Orbit: 402 x 407 km, 51.6° (Epoch: 24 January)

Date Brightness Start Highest point End Pass type
(mag) Time Alt. Az. Time Alt. Az. Time Alt. Az.
24 Jan -2.0 19:12:30 10° SSW 19:14:10 23° S 19:14:10 23° S visible
25 Jan -2.0 18:21:03 10° S 18:23:18 18° SE 18:24:23 15° ESE visible
25 Jan -0.9 19:56:15 10° WSW 19:57:03 16° WSW 19:57:03 16° WSW visible
26 Jan -4.0 19:03:55 10° SW 19:07:10 74° SE 19:07:10 74° SE visible
27 Jan -3.1 18:11:50 10° SSW 18:14:53 39° SE 18:17:12 16° ENE visible
27 Jan -1.3 19:48:21 10° W 19:49:52 22° WNW 19:49:52 22° WNW visible
28 Jan -3.3 18:55:45 10° WSW 18:58:57 53° NNW 18:59:49 39° NNE visible
29 Jan -3.8 18:03:18 10° WSW 18:06:33 89° S 18:09:42 11° ENE visible
29 Jan -1.5 19:40:36 10° WNW 19:42:21 21° NW 19:42:21 21° NW visible
30 Jan -2.5 18:47:51 10° W 18:50:49 31° NNW 18:52:11 22° NNE visible
31 Jan -3.1 17:55:10 10° W 17:58:19 45° NNW 18:01:29 10° NE visible
31 Jan -1.6 19:32:49 10° WNW 19:34:37 19° NNW 19:34:37 19° NNW visible
01 Feb -2.0 18:40:02 10° WNW 18:42:43 23° NNW 18:44:22 16° NNE visible
